This is the latest recevied weather packets stored in our database for station/object K9MJM-1. If no packets are shown the sender has not sent any weather packets the latest 10 day(s).
| Time | Temp. | Humidity | Pressure | Rain* | Wind** | Luminosity | Snow |
|---|---|---|---|---|---|---|---|
| 1777485399 | 20° C | 76% | 1015.1 hPa | 0 mm | 0.89 m/s, 82° | - | - |
| 1777485339 | 20° C | 76% | 1015.2 hPa | 0 mm | 0.89 m/s, 55° | - | - |
| 1777485279 | 20° C | 76% | 1015.2 hPa | 0 mm | 0.89 m/s, 55° | - | - |
| 1777485219 | 20° C | 76% | 1015.2 hPa | 0 mm | 0.89 m/s, 55° | - | - |
| 1777485159 | 20° C | 76% | 1015.2 hPa | 0 mm | 0.89 m/s, 55° | - | - |
| 1777485099 | 20° C | 76% | 1015.2 hPa | 0 mm | 0.89 m/s, 55° | - | - |
| 1777485039 | 20° C | 76% | 1015.2 hPa | 0 mm | 0.89 m/s, 70° | - | - |
| 1777484979 | 20° C | 76% | 1015.2 hPa | 0 mm | 0.89 m/s, 70° | - | - |
| 1777484919 | 20° C | 76% | 1015.2 hPa | 0 mm | 0.89 m/s, 70° | - | - |
| 1777484859 | 20° C | 76% | 1015.2 hPa | 0 mm | 0.89 m/s, 70° | - | - |
| 1777484800 | 20° C | 76% | 1015.2 hPa | 0 mm | 0.89 m/s, 70° | - | - |
| 1777484739 | 18.89° C | 79% | 1015.1 hPa | 0 mm | 0.89 m/s, 88° | - | - |
| 1777484679 | 18.89° C | 79% | 1015.1 hPa | 0 mm | 0.89 m/s, 88° | - | - |
| 1777484619 | 18.89° C | 79% | 1015.1 hPa | 0 mm | 0.89 m/s, 88° | - | - |
| 1777484559 | 18.89° C | 79% | 1015.1 hPa | 0 mm | 0.89 m/s, 88° | - | - |
| 1777484499 | 18.89° C | 79% | 1015.1 hPa | 0 mm | 0.89 m/s, 88° | - | - |
| 1777484439 | 18.89° C | 78% | 1015.3 hPa | 0 mm | 0.89 m/s, 102° | - | - |
| 1777484379 | 18.89° C | 78% | 1015.3 hPa | 0 mm | 0.89 m/s, 102° | - | - |
| 1777484319 | 18.89° C | 78% | 1015.3 hPa | 0 mm | 0.89 m/s, 102° | - | - |
| 1777484259 | 18.89° C | 78% | 1015.3 hPa | 0 mm | 0.89 m/s, 102° | - | - |
| 1777484199 | 18.89° C | 78% | 1015.3 hPa | 0 mm | 0.89 m/s, 102° | - | - |
| 1777484139 | 20° C | 76% | 1015 hPa | 0 mm | 0.89 m/s, 97° | - | - |
| 1777484079 | 20° C | 76% | 1015 hPa | 0 mm | 0.89 m/s, 97° | - | - |
| 1777484019 | 20° C | 76% | 1015 hPa | 0 mm | 0.89 m/s, 97° | - | - |
| 1777483959 | 19.44° C | 77% | 1015.3 hPa | 0 mm | 0.45 m/s, 99° | - | - |
* Rain latest hour (hover to see other rain measurements)
** Current wind speed in m/s (hover to see current wind gust speed)